CES5018 VHHH-ZSSS

Flight info

Callsign CES5018
Flight time 1h 47m
Altitude 39000
Route LEKEN V601 DOTMI/K0919S1130 A470 LJG B221 SHZ G204 AND AND62A
Aircraft A359/H-SDE2E3GHIJ3J4J5LM1ORWXY/LB1D1

Departure

Time 2026-05-05 11:28
Airport Hong Kong International Airport (VHHH)

Arrival

Time 2026-05-05 13:16
Airport Shanghai Hongqiao International Airport (ZSSS)
Time Latitude Longitude Altitude Speed Heading
2026-05-05 11:14 22.30744 113.91784 42 ft 0 kts 71°
2026-05-05 11:19 22.30738 113.91765 41 ft 4 kts 71°
2026-05-05 11:19 22.30730 113.91738 40 ft 4 kts 71°
2026-05-05 11:19 22.30723 113.91716 39 ft 4 kts 71°
2026-05-05 11:20 22.30715 113.91692 40 ft 4 kts 94°
2026-05-05 11:20 22.30726 113.91676 38 ft 4 kts 159°
2026-05-05 11:20 22.30750 113.91667 39 ft 4 kts 160°
2026-05-05 11:20 22.30771 113.91659 40 ft 0 kts 161°
2026-05-05 11:23 22.30763 113.91662 41 ft 5 kts 160°
2026-05-05 11:23 22.30711 113.91687 42 ft 12 kts 153°
2026-05-05 11:23 22.30626 113.91720 43 ft 15 kts 171°
2026-05-05 11:24 22.30519 113.91758 43 ft 17 kts 159°
2026-05-05 11:24 22.30432 113.91728 43 ft 10 kts 239°
2026-05-05 11:24 22.30412 113.91676 43 ft 12 kts 249°
2026-05-05 11:24 22.30378 113.91571 43 ft 19 kts 250°
2026-05-05 11:25 22.30325 113.91408 43 ft 27 kts 250°
2026-05-05 11:25 22.30255 113.91191 43 ft 34 kts 251°
2026-05-05 11:25 22.30173 113.90944 43 ft 36 kts 250°
2026-05-05 11:25 22.30092 113.90685 43 ft 37 kts 251°
2026-05-05 11:26 22.30005 113.90415 42 ft 39 kts 251°
2026-05-05 11:26 22.29916 113.90145 42 ft 37 kts 250°
2026-05-05 11:26 22.29851 113.89939 43 ft 25 kts 250°
2026-05-05 11:26 22.29794 113.89781 43 ft 15 kts 235°
2026-05-05 11:27 22.29751 113.89768 43 ft 8 kts 176°
2026-05-05 11:27 22.29674 113.89802 43 ft 17 kts 136°
2026-05-05 11:27 22.29658 113.89906 43 ft 19 kts 75°
2026-05-05 11:27 22.29783 113.90302 40 ft 95 kts 70°
2026-05-05 11:28 22.30076 113.91215 41 ft 160 kts 72°
2026-05-05 11:28 22.30431 113.92415 733 ft 164 kts 73°
2026-05-05 11:28 22.30777 113.93575 1657 ft 167 kts 74°
2026-05-05 11:28 22.31155 113.94834 2287 ft 181 kts 74°
2026-05-05 11:29 22.31593 113.96159 2679 ft 197 kts 72°
2026-05-05 11:29 22.32091 113.97614 2984 ft 215 kts 72°
2026-05-05 11:29 22.32612 113.99172 3436 ft 225 kts 72°
2026-05-05 11:29 22.33143 114.00789 3945 ft 233 kts 72°
2026-05-05 11:30 22.33656 114.02491 4489 ft 240 kts 77°
2026-05-05 11:30 22.33802 114.04290 5048 ft 243 kts 97°
2026-05-05 11:30 22.33334 114.06025 5647 ft 243 kts 120°
2026-05-05 11:30 22.32302 114.07464 6263 ft 242 kts 141°
2026-05-05 11:31 22.30866 114.08395 6854 ft 241 kts 162°
2026-05-05 11:31 22.29232 114.08725 7437 ft 240 kts 180°
2026-05-05 11:31 22.27557 114.08731 8026 ft 242 kts 183°
2026-05-05 11:31 22.25858 114.08712 8622 ft 245 kts 183°
2026-05-05 11:32 22.24150 114.08705 9223 ft 248 kts 182°
2026-05-05 11:32 22.22371 114.08692 9565 ft 263 kts 183°
2026-05-05 11:32 22.20485 114.08661 9930 ft 276 kts 183°
2026-05-05 11:32 22.18529 114.08722 10282 ft 289 kts 175°
2026-05-05 11:33 22.16570 114.09417 10550 ft 310 kts 152°
2026-05-05 11:33 22.14939 114.11023 10806 ft 329 kts 127°
2026-05-05 11:33 22.13793 114.13217 11092 ft 343 kts 118°
2026-05-05 11:33 22.12713 114.15562 11332 ft 355 kts 118°
2026-05-05 11:34 22.11593 114.17980 11558 ft 367 kts 118°
2026-05-05 11:34 22.10420 114.20481 11791 ft 377 kts 118°
2026-05-05 11:34 22.09237 114.22988 12175 ft 382 kts 118°
2026-05-05 11:34 22.07895 114.25496 12549 ft 383 kts 128°
2026-05-05 11:35 22.06029 114.27543 12944 ft 382 kts 144°
2026-05-05 11:35 22.03919 114.29232 13335 ft 384 kts 147°
2026-05-05 11:35 22.01722 114.30946 13735 ft 387 kts 147°
2026-05-05 11:35 21.99536 114.32660 14089 ft 390 kts 147°
2026-05-05 11:36 21.97328 114.34396 14433 ft 393 kts 147°
2026-05-05 11:36 21.95116 114.36139 14808 ft 395 kts 147°
2026-05-05 11:36 21.92929 114.37869 15159 ft 398 kts 147°
2026-05-05 11:36 21.90678 114.39637 15499 ft 401 kts 148°
2026-05-05 11:37 21.88468 114.41501 15860 ft 406 kts 141°
2026-05-05 11:37 21.86647 114.43849 16195 ft 415 kts 124°
2026-05-05 11:37 21.85513 114.46736 16513 ft 423 kts 105°
2026-05-05 11:37 21.85207 114.49897 16845 ft 428 kts 88°
2026-05-05 11:38 21.85428 114.53091 17180 ft 431 kts 84°
2026-05-05 11:38 21.85702 114.56323 17507 ft 434 kts 85°
2026-05-05 11:38 21.85963 114.59560 17839 ft 436 kts 85°
2026-05-05 11:38 21.86220 114.62835 18154 ft 439 kts 85°
2026-05-05 11:39 21.86473 114.66125 18452 ft 442 kts 85°
2026-05-05 11:39 21.86725 114.69423 18751 ft 444 kts 85°
2026-05-05 11:39 21.86977 114.72739 19056 ft 446 kts 85°
2026-05-05 11:39 21.87226 114.76034 19340 ft 448 kts 85°
2026-05-05 11:40 21.87478 114.79382 19631 ft 450 kts 85°
2026-05-05 11:40 21.87731 114.82752 19914 ft 452 kts 85°
2026-05-05 11:40 21.87983 114.86131 20216 ft 454 kts 85°
2026-05-05 11:40 21.88236 114.89513 20515 ft 455 kts 85°
2026-05-05 11:41 21.88486 114.92927 20793 ft 457 kts 86°
2026-05-05 11:41 21.88657 114.96353 21078 ft 459 kts 88°
2026-05-05 11:41 21.88755 114.99802 21357 ft 461 kts 89°
2026-05-05 11:41 21.88828 115.03272 21636 ft 463 kts 89°
2026-05-05 11:42 21.88901 115.06738 21898 ft 465 kts 89°
2026-05-05 11:42 21.88986 115.10226 22167 ft 467 kts 89°
2026-05-05 11:42 21.89081 115.13734 22432 ft 469 kts 89°
2026-05-05 11:42 21.89185 115.17251 22695 ft 471 kts 89°
2026-05-05 11:43 21.89294 115.20789 22965 ft 473 kts 88°
2026-05-05 11:43 21.89402 115.24295 23218 ft 475 kts 88°
2026-05-05 11:43 21.89513 115.27854 23477 ft 477 kts 88°
2026-05-05 11:43 21.89629 115.31476 23715 ft 479 kts 88°
2026-05-05 11:44 21.89737 115.35025 23903 ft 481 kts 89°
2026-05-05 11:44 21.89844 115.38639 24115 ft 483 kts 89°
2026-05-05 11:44 21.89949 115.42256 24327 ft 485 kts 88°
2026-05-05 11:44 21.90054 115.45903 24539 ft 487 kts 88°
2026-05-05 11:45 21.90160 115.49564 24761 ft 489 kts 88°
2026-05-05 11:45 21.90265 115.53230 24974 ft 491 kts 88°
2026-05-05 11:45 21.90370 115.56910 25203 ft 493 kts 88°
2026-05-05 11:45 21.90499 115.60599 25397 ft 494 kts 86°
2026-05-05 11:46 21.90964 115.64279 25619 ft 495 kts 78°
2026-05-05 11:46 21.91620 115.67924 25870 ft 496 kts 77°
2026-05-05 11:46 21.92332 115.71557 26139 ft 498 kts 76°
2026-05-05 11:46 21.93081 115.75222 26315 ft 502 kts 76°
2026-05-05 11:47 21.93842 115.78902 26534 ft 504 kts 76°
2026-05-05 11:47 21.94603 115.82588 26781 ft 506 kts 76°
2026-05-05 11:47 21.95363 115.86298 27020 ft 508 kts 76°
2026-05-05 11:47 21.96109 115.89964 27271 ft 510 kts 76°
2026-05-05 11:48 21.97623 115.97458 27748 ft 514 kts 76°
2026-05-05 11:48 21.98379 116.01220 27985 ft 516 kts 76°
2026-05-05 11:48 21.99140 116.05008 28245 ft 518 kts 76°
2026-05-05 11:49 22.00095 116.08764 28477 ft 518 kts 68°
2026-05-05 11:49 22.01547 116.12294 28717 ft 516 kts 57°
2026-05-05 11:49 22.03525 116.15504 28971 ft 511 kts 46°
2026-05-05 11:49 22.05955 116.18252 29230 ft 505 kts 36°
2026-05-05 11:50 22.08771 116.20486 29500 ft 498 kts 25°
2026-05-05 11:50 22.11841 116.22132 29782 ft 491 kts 15°
2026-05-05 11:50 22.15089 116.23184 30109 ft 482 kts
2026-05-05 11:50 22.18378 116.23634 30394 ft 473 kts 355°
2026-05-05 11:51 22.21641 116.23510 30609 ft 466 kts 346°
2026-05-05 11:51 22.24789 116.22837 30855 ft 459 kts 337°
2026-05-05 11:51 22.27771 116.21650 31102 ft 453 kts 329°
2026-05-05 11:51 22.30615 116.20167 31334 ft 456 kts 330°
2026-05-05 11:52 22.33572 116.18978 31567 ft 464 kts 336°
2026-05-05 11:52 22.36756 116.18198 31807 ft 474 kts 345°
2026-05-05 11:52 22.40067 116.17864 32040 ft 480 kts 349°
2026-05-05 11:52 22.43424 116.17682 32278 ft 484 kts 351°
2026-05-05 11:53 22.46793 116.17567 32584 ft 484 kts 351°
2026-05-05 11:53 22.50163 116.17479 32815 ft 486 kts 352°
2026-05-05 11:53 22.53541 116.17393 33011 ft 488 kts 351°
2026-05-05 11:53 22.56945 116.17301 33215 ft 490 kts 351°
2026-05-05 11:54 22.60364 116.17201 33426 ft 491 kts 351°
2026-05-05 11:54 22.63777 116.17101 33733 ft 491 kts 352°
2026-05-05 11:54 22.67207 116.17266 34028 ft 498 kts 359°
2026-05-05 11:54 22.70643 116.17970 34279 ft 508 kts
2026-05-05 11:55 22.73991 116.19284 34547 ft 518 kts 18°
2026-05-05 11:55 22.77152 116.21239 34824 ft 528 kts 28°
2026-05-05 11:55 22.80139 116.23565 35107 ft 530 kts 30°
2026-05-05 11:55 22.83081 116.25990 35395 ft 531 kts 31°
2026-05-05 11:56 22.85969 116.28423 35586 ft 533 kts 32°
2026-05-05 11:56 22.88894 116.30898 35831 ft 534 kts 32°
2026-05-05 11:56 22.91867 116.33406 36143 ft 533 kts 32°
2026-05-05 11:56 22.94760 116.35835 36418 ft 533 kts 32°
2026-05-05 11:57 22.97692 116.38279 36697 ft 532 kts 31°
2026-05-05 11:57 23.00640 116.40718 36987 ft 532 kts 31°
2026-05-05 11:57 23.03586 116.43147 37297 ft 532 kts 31°
2026-05-05 11:57 23.06536 116.45580 37588 ft 532 kts 31°
2026-05-05 11:58 23.09488 116.48017 37865 ft 532 kts 31°
2026-05-05 11:58 23.12423 116.50442 38155 ft 531 kts 31°
2026-05-05 11:58 23.15370 116.52880 38449 ft 531 kts 31°
2026-05-05 11:58 23.18301 116.55308 38712 ft 531 kts 31°
2026-05-05 11:59 23.21246 116.57748 38922 ft 531 kts 32°
2026-05-05 11:59 23.24189 116.60189 39092 ft 533 kts 31°
2026-05-05 11:59 23.30077 116.65075 39129 ft 532 kts 31°
2026-05-05 12:00 23.35951 116.69957 39129 ft 531 kts 31°
2026-05-05 12:00 23.41824 116.74845 39135 ft 531 kts 31°
2026-05-05 12:01 23.47252 116.80326 39130 ft 538 kts 40°
2026-05-05 12:01 23.52465 116.86190 39134 ft 538 kts 41°
2026-05-05 12:02 23.57644 116.92101 39137 ft 541 kts 41°
2026-05-05 12:02 23.62855 116.98044 39137 ft 542 kts 41°
2026-05-05 12:03 23.68068 117.03983 39141 ft 542 kts 41°
2026-05-05 12:03 23.73283 117.09926 39156 ft 542 kts 41°
2026-05-05 12:04 23.78519 117.15856 39144 ft 540 kts 39°
2026-05-05 12:04 23.84093 117.21328 39132 ft 539 kts 35°
2026-05-05 12:05 23.89785 117.26663 39146 ft 540 kts 35°
2026-05-05 12:05 23.95412 117.32060 39170 ft 541 kts 36°
2026-05-05 12:06 24.01026 117.37544 39136 ft 541 kts 36°
2026-05-05 12:06 24.06634 117.43050 39135 ft 541 kts 36°
2026-05-05 12:07 24.12241 117.48562 39147 ft 542 kts 36°
2026-05-05 12:07 24.17538 117.54540 39147 ft 549 kts 43°
2026-05-05 12:08 24.22695 117.60707 39137 ft 550 kts 43°
2026-05-05 12:08 24.27841 117.66912 39126 ft 549 kts 43°
2026-05-05 12:09 24.32987 117.73112 39127 ft 549 kts 43°
2026-05-05 12:09 24.38128 117.79302 39126 ft 549 kts 43°
2026-05-05 12:10 24.43273 117.85502 39133 ft 549 kts 43°
2026-05-05 12:10 24.48383 117.91671 39123 ft 549 kts 43°
2026-05-05 12:11 24.53522 117.97882 39123 ft 549 kts 43°
2026-05-05 12:11 24.58660 118.04075 39126 ft 548 kts 42°
2026-05-05 12:12 24.63958 118.10091 39123 ft 549 kts 40°
2026-05-05 12:12 24.68415 118.15067 39133 ft 550 kts 40°
2026-05-05 12:13 24.73765 118.21094 39137 ft 550 kts 41°
2026-05-05 12:13 24.79095 118.27166 39136 ft 551 kts 41°
2026-05-05 12:14 24.84389 118.33220 39141 ft 551 kts 41°
2026-05-05 12:14 24.89697 118.39295 39143 ft 551 kts 41°
2026-05-05 12:15 24.95019 118.45390 39156 ft 553 kts 41°
2026-05-05 12:15 25.00351 118.51501 39156 ft 553 kts 41°
2026-05-05 12:16 25.05683 118.57621 39162 ft 553 kts 41°
2026-05-05 12:16 25.11016 118.63759 39174 ft 553 kts 42°
2026-05-05 12:17 25.16234 118.70019 39152 ft 555 kts 44°
2026-05-05 12:17 25.21417 118.76360 39176 ft 557 kts 43°
2026-05-05 12:18 25.26627 118.82689 39165 ft 556 kts 43°
2026-05-05 12:18 25.31844 118.89007 39168 ft 556 kts 43°
2026-05-05 12:19 25.37033 118.95265 39166 ft 555 kts 42°
2026-05-05 12:19 25.42367 119.01469 39176 ft 558 kts 42°
2026-05-05 12:20 25.47741 119.07684 39178 ft 559 kts 42°
2026-05-05 12:20 25.53102 119.13935 39193 ft 559 kts 42°
2026-05-05 12:21 25.58437 119.20188 39182 ft 558 kts 42°
2026-05-05 12:21 25.63760 119.26440 39168 ft 558 kts 43°
2026-05-05 12:22 25.69073 119.32685 39192 ft 561 kts 43°
2026-05-05 12:22 25.75004 119.38128 39217 ft 547 kts 24°
2026-05-05 12:23 25.78405 119.39899 39193 ft 535 kts 12°
2026-05-05 12:23 25.81915 119.41243 39178 ft 532 kts 10°
2026-05-05 12:23 25.88978 119.43664 39177 ft 531 kts
2026-05-05 12:24 25.96048 119.46008 39178 ft 531 kts
2026-05-05 12:24 26.03116 119.48382 39199 ft 531 kts
2026-05-05 12:25 26.10172 119.50786 39186 ft 530 kts
2026-05-05 12:25 26.17234 119.53199 39191 ft 530 kts
2026-05-05 12:26 26.24104 119.56372 39229 ft 545 kts 24°
2026-05-05 12:26 26.30642 119.60768 39195 ft 549 kts 26°
2026-05-05 12:27 26.37058 119.65299 39195 ft 550 kts 27°
2026-05-05 12:27 26.43564 119.69904 39197 ft 550 kts 26°
2026-05-05 12:28 26.49997 119.74435 39214 ft 550 kts 26°
2026-05-05 12:28 26.56472 119.78977 39202 ft 549 kts 26°
2026-05-05 12:29 26.62949 119.83523 39188 ft 550 kts 26°
2026-05-05 12:29 26.69442 119.88089 39207 ft 552 kts 26°
2026-05-05 12:30 26.75948 119.92676 39212 ft 552 kts 26°
2026-05-05 12:30 26.82440 119.97259 39204 ft 552 kts 26°
2026-05-05 12:31 26.88908 120.01831 39209 ft 552 kts 26°
2026-05-05 12:31 26.95407 120.06434 39219 ft 552 kts 27°
2026-05-05 12:32 27.01884 120.11034 39213 ft 551 kts 27°
2026-05-05 12:32 27.08377 120.15649 39210 ft 554 kts 27°
2026-05-05 12:33 27.14887 120.20281 39249 ft 554 kts 27°
2026-05-05 12:33 27.21424 120.24898 39223 ft 553 kts 26°
2026-05-05 12:34 27.27933 120.29484 39216 ft 553 kts 26°
2026-05-05 12:34 27.34410 120.34058 39218 ft 553 kts 26°
2026-05-05 12:35 27.40909 120.38670 39215 ft 551 kts 27°
2026-05-05 12:35 27.47390 120.43281 39207 ft 552 kts 27°
2026-05-05 12:36 27.53908 120.47919 39210 ft 554 kts 27°
2026-05-05 12:36 27.60433 120.52572 39202 ft 555 kts 27°
2026-05-05 12:37 27.66944 120.57228 39204 ft 554 kts 27°
2026-05-05 12:37 27.72961 120.61224 39203 ft 547 kts 18°
2026-05-05 12:38 27.76485 120.62671 39200 ft 535 kts
2026-05-05 12:38 27.80109 120.63433 39203 ft 525 kts 359°
2026-05-05 12:38 27.87350 120.64263 39200 ft 521 kts 357°
2026-05-05 12:39 27.94556 120.64882 39203 ft 519 kts 356°
2026-05-05 12:39 28.01719 120.65500 39200 ft 520 kts 356°
2026-05-05 12:40 28.08932 120.66176 39219 ft 520 kts 357°
2026-05-05 12:40 28.16134 120.66885 39196 ft 518 kts 357°
2026-05-05 12:41 28.23313 120.67596 39199 ft 518 kts 357°
2026-05-05 12:41 28.30490 120.68303 39197 ft 518 kts 357°
2026-05-05 12:42 28.37654 120.69008 39197 ft 516 kts 358°
2026-05-05 12:42 28.44802 120.69714 39188 ft 515 kts 358°
2026-05-05 12:43 28.51946 120.70435 39193 ft 515 kts 358°
2026-05-05 12:43 28.59078 120.71150 39201 ft 515 kts 358°
2026-05-05 12:44 28.66200 120.71868 39179 ft 513 kts 358°
2026-05-05 12:44 28.73311 120.72605 39180 ft 513 kts 358°
2026-05-05 12:45 28.80424 120.73385 39174 ft 513 kts 358°
2026-05-05 12:45 28.87534 120.74176 39173 ft 513 kts 358°
2026-05-05 12:46 28.94595 120.74923 39170 ft 512 kts 358°
2026-05-05 12:46 29.01734 120.75648 39166 ft 512 kts 358°
2026-05-05 12:47 29.08781 120.76362 39170 ft 512 kts 358°
2026-05-05 12:47 29.15876 120.77088 39155 ft 511 kts 358°
2026-05-05 12:48 29.22966 120.77819 39149 ft 512 kts 358°
2026-05-05 12:48 29.30055 120.78552 39141 ft 511 kts 358°
2026-05-05 12:49 29.33587 120.78919 38961 ft 509 kts 358°
2026-05-05 12:49 29.37127 120.79286 38746 ft 511 kts 358°
2026-05-05 12:49 29.40675 120.79653 38487 ft 513 kts 358°
2026-05-05 12:49 29.44230 120.80021 38216 ft 513 kts 358°
2026-05-05 12:50 29.47791 120.80391 37954 ft 514 kts 359°
2026-05-05 12:50 29.51350 120.80761 37688 ft 514 kts 359°
2026-05-05 12:50 29.54905 120.81132 37355 ft 513 kts 359°
2026-05-05 12:50 29.58454 120.81729 36646 ft 518 kts
2026-05-05 12:51 29.61909 120.83012 35876 ft 527 kts 19°
2026-05-05 12:51 29.65254 120.84804 35083 ft 531 kts 22°
2026-05-05 12:51 29.68550 120.86740 34226 ft 535 kts 24°
2026-05-05 12:51 29.71847 120.88766 33232 ft 538 kts 24°
2026-05-05 12:52 29.75144 120.90829 32275 ft 539 kts 25°
2026-05-05 12:52 29.78390 120.92865 31407 ft 537 kts 25°
2026-05-05 12:52 29.81665 120.94912 30523 ft 535 kts 25°
2026-05-05 12:52 29.84937 120.96946 29527 ft 534 kts 25°
2026-05-05 12:53 29.88204 120.98966 28622 ft 530 kts 25°
2026-05-05 12:53 29.91430 121.00957 27876 ft 523 kts 25°
2026-05-05 12:53 29.94621 121.02926 27179 ft 515 kts 25°
2026-05-05 12:53 29.97759 121.04862 26503 ft 508 kts 25°
2026-05-05 12:54 30.03894 121.08656 25203 ft 493 kts 26°
2026-05-05 12:54 30.06903 121.10517 24573 ft 486 kts 26°
2026-05-05 12:54 30.09858 121.12347 23952 ft 479 kts 26°
2026-05-05 12:55 30.12770 121.14152 23269 ft 472 kts 26°
2026-05-05 12:55 30.15642 121.15933 22460 ft 466 kts 26°
2026-05-05 12:55 30.18488 121.17700 21624 ft 462 kts 26°
2026-05-05 12:55 30.21295 121.19444 20938 ft 455 kts 26°
2026-05-05 12:56 30.24078 121.21137 20178 ft 449 kts 24°
2026-05-05 12:56 30.27004 121.22277 19394 ft 442 kts
2026-05-05 12:56 30.29008 121.22633 18928 ft 437 kts
2026-05-05 12:56 30.33013 121.23149 17996 ft 429 kts
2026-05-05 12:57 30.35962 121.23516 17295 ft 422 kts
2026-05-05 12:57 30.38857 121.23882 16637 ft 415 kts
2026-05-05 12:57 30.41700 121.24245 15992 ft 409 kts
2026-05-05 12:57 30.44502 121.24613 15324 ft 403 kts
2026-05-05 12:58 30.47278 121.24986 14633 ft 400 kts
2026-05-05 12:58 30.50034 121.25367 13973 ft 397 kts
2026-05-05 12:58 30.52764 121.25747 13247 ft 394 kts
2026-05-05 12:58 30.55434 121.26119 12564 ft 389 kts
2026-05-05 12:59 30.57244 121.26370 12132 ft 387 kts
2026-05-05 12:59 30.59894 121.26741 11646 ft 378 kts
2026-05-05 12:59 30.62432 121.27097 11497 ft 358 kts
2026-05-05 13:00 30.67138 121.27753 11255 ft 324 kts
2026-05-05 13:00 30.69324 121.28060 11122 ft 309 kts
2026-05-05 13:01 30.75981 121.28994 10606 ft 277 kts
2026-05-05 13:01 30.77891 121.29260 10312 ft 275 kts
2026-05-05 13:01 30.79149 121.29436 10106 ft 275 kts
2026-05-05 13:01 30.81048 121.29700 9801 ft 280 kts
2026-05-05 13:02 30.83025 121.29978 9643 ft 291 kts
2026-05-05 13:02 30.85044 121.30262 9374 ft 290 kts
2026-05-05 13:02 30.87055 121.30544 8883 ft 291 kts
2026-05-05 13:02 30.89055 121.30826 8511 ft 289 kts
2026-05-05 13:03 30.91053 121.31108 8196 ft 288 kts
2026-05-05 13:03 30.93039 121.31388 7875 ft 287 kts
2026-05-05 13:03 30.95016 121.31675 7690 ft 287 kts
2026-05-05 13:03 30.96998 121.31960 7531 ft 285 kts
2026-05-05 13:04 30.98967 121.32243 7355 ft 285 kts
2026-05-05 13:04 31.00941 121.32526 7191 ft 286 kts
2026-05-05 13:04 31.02915 121.32809 7010 ft 285 kts
2026-05-05 13:04 31.04874 121.33091 6844 ft 285 kts
2026-05-05 13:05 31.06846 121.33374 6668 ft 286 kts
2026-05-05 13:05 31.08721 121.33644 6502 ft 286 kts
2026-05-05 13:05 31.10768 121.33832 6321 ft 284 kts 357°
2026-05-05 13:05 31.12643 121.33236 6137 ft 280 kts 329°
2026-05-05 13:06 31.14056 121.31806 5974 ft 278 kts 309°
2026-05-05 13:06 31.15290 121.30065 5812 ft 279 kts 307°
2026-05-05 13:06 31.16487 121.28322 5630 ft 280 kts 306°
2026-05-05 13:06 31.17709 121.26553 5463 ft 279 kts 307°
2026-05-05 13:07 31.18936 121.24794 5290 ft 278 kts 307°
2026-05-05 13:07 31.20368 121.23282 5124 ft 280 kts 327°
2026-05-05 13:07 31.22222 121.22593 4950 ft 283 kts 352°
2026-05-05 13:07 31.24182 121.22438 4773 ft 282 kts 357°
2026-05-05 13:08 31.26151 121.22357 4593 ft 282 kts 357°
2026-05-05 13:08 31.28112 121.22272 4422 ft 282 kts 357°
2026-05-05 13:08 31.30070 121.22179 4260 ft 277 kts 357°
2026-05-05 13:08 31.31824 121.22090 4131 ft 266 kts 356°
2026-05-05 13:09 31.33615 121.21997 3988 ft 256 kts 356°
2026-05-05 13:09 31.35337 121.21922 3824 ft 248 kts 360°
2026-05-05 13:09 31.36963 121.22380 3651 ft 238 kts 32°
2026-05-05 13:09 31.38024 121.23766 3495 ft 228 kts 70°
2026-05-05 13:10 31.38303 121.25532 3382 ft 215 kts 91°
2026-05-05 13:10 31.38314 121.27234 3268 ft 202 kts 94°
2026-05-05 13:10 31.38303 121.28849 3103 ft 194 kts 94°
2026-05-05 13:10 31.38268 121.30411 2957 ft 189 kts 99°
2026-05-05 13:11 31.37763 121.31764 2828 ft 181 kts 140°
2026-05-05 13:11 31.36678 121.32447 2740 ft 177 kts 160°
2026-05-05 13:11 31.35482 121.32761 2643 ft 176 kts 175°
2026-05-05 13:11 31.34269 121.32833 2515 ft 172 kts 177°
2026-05-05 13:12 31.33095 121.32903 2301 ft 166 kts 177°
2026-05-05 13:12 31.31963 121.32966 2088 ft 158 kts 177°
2026-05-05 13:12 31.30919 121.33024 1863 ft 145 kts 178°
2026-05-05 13:12 31.29957 121.33075 1681 ft 131 kts 178°
2026-05-05 13:13 31.29086 121.33123 1519 ft 119 kts 178°
2026-05-05 13:13 31.28276 121.33167 1376 ft 115 kts 177°
2026-05-05 13:13 31.27477 121.33211 1222 ft 115 kts 177°
2026-05-05 13:13 31.26678 121.33255 1060 ft 115 kts 178°
2026-05-05 13:14 31.25883 121.33298 905 ft 114 kts 177°
2026-05-05 13:14 31.25079 121.33322 731 ft 117 kts 175°
2026-05-05 13:14 31.24261 121.33377 613 ft 117 kts 172°
2026-05-05 13:14 31.23447 121.33448 468 ft 119 kts 173°
2026-05-05 13:15 31.22611 121.33501 313 ft 123 kts 177°
2026-05-05 13:15 31.21735 121.33525 164 ft 128 kts 175°
2026-05-05 13:15 31.20864 121.33576 35 ft 122 kts 176°
2026-05-05 13:15 31.20139 121.33616 27 ft 87 kts 178°
2026-05-05 13:16 31.19671 121.33637 26 ft 48 kts 178°
2026-05-05 13:16 31.19356 121.33670 27 ft 36 kts 164°
2026-05-05 13:16 31.19157 121.33791 28 ft 31 kts 150°
2026-05-05 13:16 31.19058 121.33873 29 ft 12 kts 112°
2026-05-05 13:17 31.19055 121.33969 28 ft 6 kts 63°
2026-05-05 13:17 31.19097 121.34004 29 ft 10 kts 14°
2026-05-05 13:17 31.19185 121.34000 28 ft 15 kts 357°
2026-05-05 13:17 31.19301 121.33994 28 ft 19 kts 358°
2026-05-05 13:18 31.19441 121.33987 29 ft 21 kts 357°
2026-05-05 13:18 31.19578 121.33979 28 ft 14 kts 357°
2026-05-05 13:18 31.19687 121.33973 28 ft 17 kts 357°
2026-05-05 13:18 31.19817 121.33966 30 ft 18 kts 357°
2026-05-05 13:19 31.19867 121.33964 28 ft 7 kts
2026-05-05 13:19 31.19899 121.33995 29 ft 7 kts 72°
2026-05-05 13:19 31.19905 121.34069 28 ft 11 kts 90°
2026-05-05 13:19 31.19862 121.34114 28 ft 5 kts 168°
2026-05-05 13:20 31.19860 121.34115 28 ft 0 kts 168°
2026-05-05 13:20 31.19842 121.34118 29 ft 6 kts 172°
2026-05-05 13:20 31.19830 121.34119 28 ft 0 kts 176°
2026-05-05 13:20 31.19828 121.34119 28 ft 0 kts 176°